KC3FDL Weather Reports


time (UTC)temp
F
wind
direction
speed
knots
gust
knots
rain 1hr
in
rain 24hr
in
rain mn
in
humidity
%
barometer
mb
20260504214056 75 256 3.5 10.4 0.00 0.00 0.00 34 1009.4
20260504213016 76 252 2.6 8.7 0.00 0.00 0.00 34 1009.4
20260504212016 76 279 3.5 8.7 0.00 0.00 0.00 34 1009.4
20260504211056 76 274 2.6 9.6 0.00 0.00 0.00 34 1009.5
20260504210016 76 273 3.5 11.3 0.00 0.00 0.00 34 1009.5
20260504205016 76 283 3.5 11.3 0.00 0.00 0.00 34 1009.5
20260504204116 76 272 2.6 9.6 0.00 0.00 0.00 35 1009.5
20260504203016 74 283 2.6 15.6 0.00 0.00 0.00 35 1009.6
20260504202038 74 279 4.3 15.6 0.00 0.00 0.00 35 1009.8
20260504201037 74 281 4.3 11.3 0.00 0.00 0.00 34 1009.8
20260504200036 75 289 4.3 10.4 0.00 0.00 0.00 34 1010.0
20260504195157 75 281 3.5 9.6 0.00 0.00 0.00 35 1010.2
20260504194036 75 278 3.5 10.4 0.00 0.00 0.00 35 1010.5
20260504193056 75 246 2.6 10.4 0.00 0.00 0.00 35 1010.7
20260504192016 74 282 3.5 10.4 0.00 0.00 0.00 35 1010.8
20260504191056 74 275 3.5 8.7 0.00 0.00 0.00 35 1011.0
20260504185036 73 276 3.5 13.0 0.00 0.00 0.00 36 1011.3
20260504184015 72 271 4.3 13.0 0.00 0.00 0.00 36 1011.3
20260504183036 72 271 4.3 12.2 0.00 0.00 0.00 36 1011.5
20260504182056 72 265 3.5 11.3 0.00 0.00 0.00 36 1011.6
20260504181015 72 270 3.5 11.3 0.00 0.00 0.00 36 1011.7
20260504180056 71 254 2.6 11.3 0.00 0.00 0.00 36 1011.7
20260504175016 71 293 4.3 12.2 0.00 0.00 0.00 36 1011.8
20260504174035 71 266 4.3 12.2 0.00 0.00 0.00 36 1011.9
20260504173115 70 244 1.7 9.6 0.00 0.00 0.00 36 1011.9
20260504172055 71 242 2.6 9.6 0.00 0.00 0.00 36 1012.2
20260504171015 70 301 1.7 10.4 0.00 0.00 0.00 38 1012.3
20260504151037 65 297 4.3 10.4 0.00 0.00 0.00 40 1013.8
20260504141018 61 239 2.6 8.7 0.00 0.00 0.00 45 1014.0
20260504081037 37 0.0 0.9 0.00 0.00 0.00 88 1015.1
20260504045016 39 17 0.9 1.7 0.00 0.00 0.00 83 1015.3
20260504044016 39 17 0.0 0.9 0.00 0.00 0.00 82 1015.3
20260504043036 39 17 0.0 1.7 0.00 0.00 0.00 82 1015.3
20260504042016 39 17 0.9 1.7 0.00 0.00 0.00 80 1015.2
20260504041016 40 23 0.0 1.7 0.00 0.00 0.00 79 1015.0
20260504040136 40 59 0.9 2.6 0.00 0.00 0.00 79 1014.8
20260504035036 40 121 0.9 2.6 0.00 0.00 0.00 78 1014.7
20260504034016 41 31 0.9 1.7 0.00 0.00 0.00 78 1014.9
20260504033036 41 0 0.9 1.7 0.00 0.00 0.00 76 1014.9
20260504032056 42 0 0.9 1.7 0.00 0.00 0.00 75 1014.8
20260504031036 42 0 0.0 1.7 0.00 0.00 0.00 74 1014.6
20260504030016 42 0 0.0 2.6 0.00 0.00 0.00 73 1014.6
20260504025056 43 354 0.9 2.6 0.00 0.00 0.00 72 1014.6
20260504024016 43 284 0.9 1.7 0.00 0.00 0.00 70 1014.6
20260504023036 44 284 0.0 1.7 0.00 0.00 0.00 69 1014.6
20260504022016 44 284 0.9 1.7 0.00 0.00 0.00 67 1014.6
20260504021036 45 281 0.9 1.7 0.00 0.00 0.00 66 1014.5
20260504020018 46 265 0.0 1.7 0.00 0.00 0.00 64 1014.5
20260504015016 47 312 0.0 1.7 0.00 0.00 0.00 62 1014.5
20260504014056 47 328 0.9 1.7 0.00 0.00 0.00 60 1014.4
20260504013016 48 328 0.9 1.7 0.00 0.00 0.00 57 1014.4
20260504012016 49 328 0.0 1.7 0.00 0.00 0.00 56 1014.3
20260504011036 50 332 0.0 1.7 0.00 0.00 0.00 53 1014.2
20260504010016 51 332 0.9 1.7 0.00 0.00 0.00 51 1014.2
20260504005016 53 329 0.0 1.7 0.00 0.00 0.00 47 1014.2
20260504004056 54 329 0.0 0.9 0.00 0.00 0.00 45 1014.1
20260504003016 55 329 0.0 0.9 0.00 0.00 0.00 43 1014.0
20260504002016 56 329 0.0 0.9 0.00 0.00 0.00 41 1013.9
20260504001036 57 329 0.0 0.9 0.00 0.00 0.00 39 1013.8
20260504000016 58 329 0.0 1.7 0.00 0.00 0.00 37 1013.7
20260503235016 58 330 0.9 3.5 0.00 0.00 0.00 36 1013.6
20260503234036 59 319 1.7 3.5 0.00 0.00 0.00 34 1013.5
20260503233036 59 346 1.7 7.8 0.00 0.00 0.00 35 1013.3
20260503232056 60 323 2.6 7.8 0.00 0.00 0.00 34 1013.2
20260503231116 60 349 1.7 7.0 0.00 0.00 0.00 34 1013.2
20260503230016 60 348 1.7 9.6 0.00 0.00 0.00 34 1013.2
20260503225016 60 340 3.5 9.6 0.00 0.00 0.00 33 1013.3
20260503224016 60 345 4.3 15.6 0.00 0.00 0.00 33 1013.3
20260503223056 60 343 5.2 15.6 0.00 0.00 0.00 33 1013.3
20260503222016 60 348 5.2 12.2 0.00 0.00 0.00 33 1013.4
20260503221036 60 344 4.3 11.3 0.00 0.00 0.00 33 1013.4
20260503220056 60 323 5.2 13.0 0.00 0.00 0.00 33 1013.5
20260503215056 61 345 5.2 13.0 0.00 0.00 0.00 32 1013.5